weather.gov     
National Weather Service

Terminal Aerodrome Forecast
NWS Homepage
This page is being discontinued on March 12, 2014.
The same data is available at this site. Please update your bookmarks.
Thank you, and we apologize for the inconvenience.
Please send an email to SR-SRH.Webmaster@noaa.gov with any concerns.


Current Version
Previous Version:    01  02  03  04  05  06  07  08  09  10  11  12  13  14  15  16  17  18  19  20  21  22  23  24  25  26  27  28  29  30  
   31  
[Printable]
231
FTUS41 KBOX 011727
TAFHYA
TAF
KHYA 011727Z 0118/0218 22012KT P6SM VCTS BKN008CB
     FM012100 22007KT 3SM BR BKN008
     FM020000 22007KT 3SM BR BKN001
     FM020400 23006KT P6SM SCT001
     FM020700 23006KT P6SM BKN001
     FM021700 21008KT P6SM SCT001=




231
FTUS41 KBOX 011727
TAFHYA
TAF
KHYA 011727Z 0118/0218 22012KT P6SM VCTS BKN008CB
     FM012100 22007KT 3SM BR BKN008
     FM020000 22007KT 3SM BR BKN001
     FM020400 23006KT P6SM SCT001
     FM020700 23006KT P6SM BKN001
     FM021700 21008KT P6SM SCT001=


U.S. Dept. of Commerce
NOAA National Weather Service
1325 East West Highway
Silver Spring, MD 20910
E-mail: w-nws.webmaster@noaa.gov
Page last modified: May 16, 2007
NATIONAL WEATHER SERVICE: for Safety, for Work, for Fun - FOR LIFE